Location: Dreilärchen
(47.9312°N, 8.6113°E)
Time: 22:24:45
(UTC+00:00)

Meteor 2-5 Rocket - Pass Details

Date: 26 May 2022
Orbit: 832 x 912 km, 81.2° (Epoch: 03 July)

Event Time Altitude Azimuth Distance (km) Brightness Sun altitude
Exits shadow 00:55:58 27° 177° (S) 1,641 4.7 -17.9°
Maximum altitude 00:59:16 73° 98° (E) 913 3.9 -17.6°
Drops below altitude 10° 01:04:56 10° 15° (NNE) 2,503 7.4 -17.3°
Sets 01:07:20 0° 14° (NNE) 3,433 8.5 -17.1°
